Location: Artiguedieu
(43.5000°N, 0.5454°E)
Time: 02:24:57
(UTC+00:00)

Transit 2A Rocket - Pass Details

Date: 28 July 2021
Orbit: 586 x 916 km, 66.7° (Epoch: 16 September)

Event Time Altitude Azimuth Distance (km) Brightness Sun altitude
Rises 21:54:38 0° 337° (NNW) 3,205 9.7 -21.0°
Reaches altitude 10° 21:57:39 10° 356° (N) 2,342 8.4 -21.3°
Maximum altitude 22:01:29 19° 41° (NE) 1,851 7.1 -21.7°
Enters shadow 22:05:00 12° 82° (E) 2,354 7.3 -22.0°
Drops below altitude 10° 22:05:31 10° 86° (E) 2,484 - -22.0°
Sets 22:08:49 0° 103° (ESE) 3,467 - -22.3°
